Tracking 25612 objects as of 19-May-2022
HD Live streaming from Space Station
objects crossing your sky now

SL-12 R/B(2)

Track SL-12 R/B(2) now!


NORAD ID: 23429
Int'l Code: 1994-082D
Perigee: 35,509.9 km
Apogee: 35,786.9 km
Inclination: 14.7 °
Period: 1,428.7 minutes
Semi major axis: 42019 km
RCS: 2.5118 m2 (large)
Launch date: December 16, 1994
Source: Commonwealth of Independent States (former USSR) (CIS)
Launch site: TYURATAM MISSILE AND SPACE COMPLEX (TTMTR)

Note: This is a ROCKET BODY
aabbcc
Your satellite tracking list
Your tracking list is empty




NASA's NSSDC Master Catalog

Two Line Element Set (TLE):
1 23429U 94082D   22138.43278434 -.00000209  00000-0  00000-0 0  9996
2 23429  14.6988   5.9419 0032953  95.1140 253.7200  1.00792434100862
Source of the keplerian elements: AFSPC